RH
85 87 92 90 94 96 100 100 100 99 88 81 87 88 85 80 73 77 75 71 71 70 73 70 70 75 74 78 85 88 84 85 64 55 28 10 15 57
53 61 71 78 86 89 93 93 93 99 99 91 89 90 92 90 84 84 83 81 76 78 81 76 77 82 79 88 93 91 88 80 63 39 11 10 26 94
59 64 65 65 76 81 76 87 100 100 100 89 88 91 98 95 89 86 84 83 82 87 86 86 84 93 94 93 99 95 92 69 55 18 9 13 54 94
82 82 83 82 80 77 80 84 96 98 100 100 100 98 96 91 86 84 85 84 88 87 85 81 92 99 100 97 100 93 88 66 27 12 10 16 22 78
66 75 78 79 77 73 74 75 72 76 97 98 96 99 98 89 91 96 87 89 88 94 97 85 90 100 98 100 97 96 76 43 18 11 15 16 14 20
81 82 82 82 86 85 90 90 88 84 87 95 99 98 100 98 96 95 97 96 96 99 98 99 83 93 99 100 97 88 64 24 12 14 16 16 17 26
80 79 79 77 80 81 84 91 95 95 94 99 100 98 99 100 99 99 99 93 97 100 100 100 100 98 96 99 99 90 32 17 13 16 17 18 41 88
63 38 44 62 82 94 92 92 98 100 100 100 100 100 99 96 96 99 99 100 100 98 100 99 100 93 100 100 93 41 21 15 15 21 19 25 63 96
35 35 48 86 64 73 85 91 90 89 98 100 100 99 99 98 100 99 97 99 100 96 96 100 100 100 100 98 58 35 19 17 24 25 26 39 54 96
16 24 24 17 29 54 99 97 99 99 95 98 100 95 97 99 100 99 99 100 100 100 100 100 100 99 100 83 77 28 22 33 37 47 50 27 57 91
52 68 28 16 21 44 100 99 98 95 86 84 90 83 74 88 100 100 98 100 100 100 100 100 100 97 84 74 30 25 26 37 54 92 62 52 71 86
84 63 35 28 23 47 100 100 99 99 99 97 90 88 82 80 81 100 100 100 100 100 100 99 98 90 85 63 27 21 20 20 44 52 57 94 96 86
91 92 62 29 28 82 100 100 100 100 99 100 98 98 92 99 96 100 100 100 100 100 99 97 98 92 37 14 17 16 16 24 27 28 31 42 61 69
99 96 68 35 82 100 99 100 99 100 100 100 100 99 100 100 100 100 100 100 100 100 99 100 90 73 26 15 18 17 18 20 21 20 22 23 27 36
95 92 76 96 98 99 99 98 99 99 100 99 100 100 100 100 100 100 100 100 100 100 100 99 96 22 14 19 15 16 19 18 17 20 27 38 45 54
91 83 100 99 98 100 100 100 96 99 99 99 100 99 100 100 99 100 99 99 99 98 98 94 24 22 23 18 15 13 14 19 33 35 36 43 51 59
94 99 98 99 100 99 100 99 96 99 100 99 99 99 100 100 99 99 98 99 98 98 96 36 30 27 21 15 12 16 29 34 37 42 54 60 63 66
95 99 99 100 100 100 100 99 95 98 100 99 98 99 99 100 98 98 98 98 98 93 41 36 30 26 17 13 19 28 35 45 53 58 64 71 70 69
94 99 100 100 99 100 100 99 98 97 98 98 98 98 98 97 97 98 98 97 95 44 41 36 26 16 15 14 23 39 47 53 62 70 76 79 77 76
100 97 93 98 94 100 99 98 96 96 97 97 97 97 97 97 97 97 97 97 48 38 37 25 19 18 14 21 38 49 60 70 81 84 85 91 86 79
98 95 93 91 100 99 99 97 97 96 96 96 97 97 97 96 97 97 96 46 44 36 28 23 20 13 25 43 53 69 78 91 92 85 81 92 92 87
98 93 90 91 99 99 99 96 96 96 96 96 96 96 96 97 97 94 44 38 35 27 21 14 14 34 44 62 78 85 84 86 90 88 93 98 100 100
98 93 96 88 87 97 98 96 96 96 96 96 96 96 96 97 94 44 40 33 24 21 13 16 36 48 74 89 94 89 87 85 85 92 100 100 100 100
Wind_Speed
38 41 43 45 47 48 49 48 43 37 40 40 40 42 44 39 38 40 38 37 36 38 39 37 38 41 41 38 36 35 34 34 33 31 31 29 28 22
34 38 39 42 44 46 46 47 49 48 45 43 50 48 44 40 38 40 42 41 40 41 41 41 40 43 42 39 38 35 35 34 31 30 28 27 24 17
32 32 32 32 36 41 44 47 47 48 49 57 51 49 41 42 42 39 44 44 46 41 43 45 44 46 46 43 40 36 34 31 29 28 27 26 21 18
29 29 31 34 37 38 40 43 45 48 48 49 51 47 48 50 48 45 44 44 48 42 40 43 49 48 45 43 39 35 32 29 28 27 26 25 23 20
35 34 34 34 37 40 40 41 41 45 47 50 55 51 50 48 47 49 48 48 46 50 48 39 48 48 46 44 38 34 29 26 28 25 25 24 24 22
34 34 35 35 35 37 38 39 40 42 45 46 48 49 48 50 51 51 51 53 49 51 48 45 48 48 49 41 37 27 27 27 26 25 25 24 22 19
36 39 40 38 36 35 35 37 38 39 41 42 42 42 43 35 45 42 53 54 51 52 52 51 48 48 44 39 30 28 28 26 26 25 24 22 20 17
40 42 39 39 37 32 34 36 36 39 42 42 41 41 45 47 34 42 48 44 41 55 49 49 49 43 41 34 24 25 27 27 26 24 22 21 18 17
37 37 34 33 38 35 39 35 36 40 40 40 41 42 43 44 42 40 40 50 49 47 34 44 43 40 36 25 21 26 28 25 23 22 19 17 17 18
36 33 35 40 36 36 34 39 40 40 41 37 39 43 42 42 39 42 44 43 45 38 35 36 36 34 27 25 25 27 24 23 22 20 18 18 18 19
33 36 40 39 38 40 36 41 45 45 43 40 41 42 42 39 36 46 33 42 38 33 34 29 29 27 22 21 23 22 22 22 20 20 21 19 19 18
36 43 42 40 42 41 43 46 50 47 43 43 42 41 45 40 35 37 36 44 38 28 34 31 27 21 12 21 23 20 20 17 18 20 19 18 18 20
38 44 47 45 42 40 42 40 42 41 41 40 40 39 43 39 39 37 32 41 42 31 32 35 24 19 15 8 15 17 16 17 18 19 20 19 19 18
39 44 49 45 41 43 40 38 40 38 34 34 35 35 37 36 31 28 28 29 29 22 24 25 15 17 19 15 11 16 17 15 16 16 18 19 18 17
41 45 45 41 37 42 37 36 35 34 32 33 34 33 31 26 26 23 19 19 22 17 19 17 12 13 13 13 10 11 11 12 13 15 16 14 15 16
47 43 37 31 33 38 40 37 36 33 34 32 27 26 23 21 20 19 21 20 19 18 16 13 13 10 11 11 9 8 8 6 7 9 13 15 16 17
40 35 31 31 36 40 43 40 39 33 31 29 27 22 19 19 21 21 18 17 17 16 13 12 10 10 10 8 6 4 5 6 8 10 14 16 16 17
33 30 31 32 36 39 41 44 39 32 30 28 23 20 18 21 21 19 17 15 12 11 11 11 10 7 5 3 2 3 6 7 8 12 15 21 22 14
29 32 33 35 38 40 41 43 39 31 28 26 23 19 19 20 20 20 19 15 12 11 11 9 7 4 1 2 4 6 7 9 13 15 16 19 23 18
31 33 35 36 38 42 44 42 36 30 26 24 21 17 16 18 21 19 16 14 12 11 9 7 5 1 3 5 5 5 10 15 16 19 18 17 18 16
36 35 34 36 40 42 43 39 33 28 22 20 17 13 13 17 18 15 13 12 11 9 8 6 3 3 5 7 11 13 6 8 13 16 18 22 20 17
37 36 34 38 40 38 43 37 30 24 20 14 11 10 12 13 13 13 13 12 11 9 6 3 1 4 7 9 11 11 15 13 11 10 12 14 16 7
36 35 35 38 40 37 41 34 26 21 16 12 9 8 9 12 11 12 11 11 9 6 3 0 3 5 7 10 11 14 13 11 11 6 4 7 8 9
Wind_Direction
290 286 282 281 278 275 271 268 262 269 269 273 274 278 279 280 277 273 264 255 253 249 250 250 246 245 246 247 250 256 263 265 265 271 280 287 286 276
294 293 291 290 288 285 279 274 269 262 267 269 271 270 269 269 273 276 270 263 253 252 253 254 250 248 246 245 249 253 259 262 264 273 283 282 279 253
305 306 301 295 290 287 284 281 270 264 261 271 269 270 264 265 268 268 269 263 255 250 247 252 251 246 246 244 247 252 257 260 267 277 279 278 261 246
318 309 300 298 297 296 294 288 280 272 265 265 268 268 269 271 270 268 262 262 259 251 248 254 249 246 243 244 247 252 256 260 270 274 275 270 261 246
308 306 301 299 296 294 293 293 292 287 278 270 271 269 269 270 267 261 263 262 261 254 246 244 251 246 245 245 245 252 255 264 270 270 269 266 261 252
313 312 308 305 303 303 298 294 293 292 289 284 277 274 261 259 263 260 258 261 255 251 251 242 248 245 245 241 241 249 258 264 268 265 265 262 255 248
313 314 312 310 305 302 299 295 295 295 293 288 284 281 273 258 262 252 259 265 259 252 251 241 237 238 244 236 238 251 253 262 264 260 259 254 249 243
312 315 316 314 315 313 304 298 298 297 295 292 290 284 282 280 272 258 267 246 248 250 245 243 238 241 237 233 238 244 255 261 258 257 248 247 242 238
313 321 324 321 318 311 305 305 296 288 292 296 298 292 290 287 283 272 261 245 239 247 256 237 239 235 231 233 237 249 256 253 253 252 250 241 240 241
317 320 323 324 326 326 315 307 303 298 293 290 289 299 294 286 286 278 265 243 245 242 239 224 225 225 219 222 235 240 240 241 244 246 239 242 244 246
318 314 319 325 328 326 316 311 308 300 303 300 290 285 288 289 287 275 267 243 225 229 217 215 199 194 207 233 229 234 235 238 240 238 234 245 246 250
313 311 321 326 327 327 318 314 311 307 310 308 301 289 295 288 290 264 266 249 223 210 210 200 189 183 196 231 233 235 235 228 228 228 237 241 241 246
315 318 322 323 324 327 324 321 318 315 311 306 298 294 293 296 290 276 259 245 233 215 210 194 185 187 193 187 201 203 217 224 234 240 241 238 238 243
318 317 319 320 322 325 324 320 316 311 310 314 312 302 292 286 280 262 245 237 229 213 183 183 184 192 202 205 201 212 223 225 230 238 245 247 245 244
319 317 318 317 318 322 330 329 326 324 322 322 312 301 294 288 282 255 227 201 190 174 165 174 179 200 205 206 193 199 210 228 230 239 241 234 243 245
323 324 319 315 316 327 336 335 332 330 325 319 313 303 295 279 248 221 201 189 174 166 172 169 196 198 199 207 216 211 225 220 193 224 252 254 254 256
323 324 322 325 326 330 337 337 335 332 329 320 313 302 285 257 217 204 196 190 183 178 177 179 185 193 204 219 237 231 238 242 235 239 257 265 257 261
328 331 326 324 329 327 330 335 336 332 329 319 309 292 267 238 212 198 200 191 183 173 175 180 188 192 205 221 252 254 250 244 255 265 275 284 284 278
336 332 330 328 328 328 329 333 333 332 327 317 307 288 255 234 212 199 190 182 170 172 179 182 184 195 250 332 283 240 263 282 295 288 280 273 281 290
338 333 332 331 331 329 330 334 334 333 326 318 305 282 255 228 201 190 176 172 168 178 180 182 197 222 304 300 303 293 300 300 294 291 290 284 283 279
336 335 335 335 331 332 330 336 334 333 327 318 303 274 240 212 195 173 163 158 174 174 177 185 204 252 288 310 315 321 320 289 283 286 292 292 295 295
334 334 336 335 329 336 334 337 336 335 328 317 293 259 216 198 177 163 160 164 159 165 169 177 255 318 318 316 318 318 327 331 319 299 277 269 263 263
332 332 334 328 331 337 336 337 335 335 324 319 296 228 190 173 160 151 150 149 153 155 147 50 318 320 322 320 331 343 343 353 2 26 351 310 283 277